Weather History for Talkeetna, AK

Change the Weather History Date:

Thursday, April 11, 2013

  Actual Average Record
Temperature  
Mean Temperature 7 °F -  
Max Temperature 25 °F 40 °F 63 °F (1953)
Min Temperature -11 °F 19 °F -11 °F (2013)
Degree Days  
Heating Degree Days 58    
Moisture  
Dew Point -3 °F    
Average Humidity 61    
Maximum Humidity 87    
Minimum Humidity 31    
Precipitation  
Precipitation 0.00 in - - ()
Sea Level Pressure  
Sea Level Pressure 30.06 in    
Wind  
Wind Speed 2 mph (WNW)    
Max Wind Speed 8 mph    
Max Gust Speed -    
Visibility 10 miles    
Events Snow    
Averages and records for this station are not official NWS values.
T = Trace of Precipitation, MM = Missing Value Source: NWS Daily Summary

Daily Weather History Graph

Daily Weather History Graph

Search for Another Location

Airport:

Trip Planner

Search our weather history database for the weather conditions in past years. The results will help you decide how hot, cold, wet, or windy it might be!

Date:

Astronomy

Apr. 11, 2013 Rise Set
Actual Time 6:47 AM AKDT 9:17 PM AKDT
Civil Twilight 5:57 AM AKDT 10:06 PM AKDT
Nautical Twilight 4:51 AM AKDT 11:14 PM AKDT
Astronomical Twilight 3:09 AM AKDT 1:03 AM AKDT
Moon 6:56 AM AKDT (4/11) 11:41 PM AKDT (4/11)
Length of Visible Light 16h 08m
Length of Day
14h 29m
New Moon, 2% of the Moon is Illuminated
Apr 11
New Moon
Apr 18
First Quarter
Apr 25
Full
May 2
Last Quarter
May 9
New

Hourly Weather History & Observations

Time (AKDT) Temp. Windchill Dew Point Humidity Pressure Visibility Wind Dir Wind Speed Gust Speed Precip Events Conditions
12:01 AM 8.6 °F - 5.0 °F 85% 29.92 in 2.5 mi Calm Calm - 0.00 in Snow Light Snow
12:08 AM 8.6 °F - 3.2 °F 79% 29.93 in 5.0 mi Calm Calm - 0.00 in Snow Light Snow
12:42 AM 6.8 °F - 3.2 °F 85% 29.94 in 10.0 mi Calm Calm - 0.00 in   Scattered Clouds
12:53 AM 5.0 °F - 1.9 °F 87% 29.98 in 9.0 mi Calm Calm - 0.00 in   Clear
1:53 AM -0.0 °F - -4.0 °F 83% 30.00 in 10.0 mi Calm Calm - N/A   Clear
2:53 AM -4.0 °F - -8.0 °F 83% 30.02 in 10.0 mi Calm Calm - N/A   Clear
3:53 AM -6.0 °F - -9.9 °F 83% 30.04 in 10.0 mi Calm Calm - N/A   Scattered Clouds
4:53 AM -7.1 °F - -11.9 °F 79% 30.05 in 10.0 mi Calm Calm - N/A   Partly Cloudy
5:53 AM -9.0 °F - -13.0 °F 83% 30.06 in 10.0 mi Calm Calm - N/A   Partly Cloudy
6:53 AM -9.9 °F -21.5 °F -16.1 °F 74% 30.07 in 10.0 mi NNE 4.6 mph - N/A   Clear
7:53 AM -9.0 °F - -15.0 °F 75% 30.08 in 10.0 mi Calm Calm - N/A   Clear
8:53 AM -0.0 °F - -7.1 °F 72% 30.09 in 10.0 mi Calm Calm - N/A   Clear
9:53 AM 9.0 °F 2.4 °F -0.9 °F 64% 30.09 in 10.0 mi Variable 3.5 mph - N/A   Clear
10:53 AM 12.0 °F 5.9 °F 1.9 °F 64% 30.09 in 10.0 mi West 3.5 mph - N/A   Clear
11:53 AM 15.1 °F 7.7 °F 3.0 °F 59% 30.10 in 10.0 mi West 4.6 mph - N/A   Clear
12:53 PM 19.0 °F 12.3 °F 1.9 °F 47% 30.10 in 10.0 mi West 4.6 mph - N/A   Clear
1:53 PM 21.0 °F 13.4 °F 1.0 °F 42% 30.10 in 10.0 mi NW 5.8 mph - N/A   Clear
2:53 PM 21.0 °F 11.4 °F 1.0 °F 42% 30.10 in 10.0 mi WNW 8.1 mph - N/A   Clear
3:53 PM 23.0 °F 13.9 °F -0.9 °F 35% 30.10 in 10.0 mi NW 8.1 mph - N/A   Clear
4:53 PM 23.0 °F 13.9 °F -2.9 °F 32% 30.09 in 10.0 mi NW 8.1 mph - N/A   Clear
5:53 PM 24.1 °F 16.0 °F -2.9 °F 31% 30.08 in 10.0 mi Variable 6.9 mph - N/A   Clear
6:53 PM 24.1 °F 18.2 °F -2.9 °F 31% 30.08 in 10.0 mi Variable 4.6 mph - N/A   Clear
7:53 PM 21.9 °F 17.2 °F -0.9 °F 37% 30.09 in 10.0 mi WNW 3.5 mph - N/A   Clear
8:53 PM 18.0 °F 11.1 °F -0.9 °F 44% 30.09 in 10.0 mi WNW 4.6 mph - N/A   Clear
9:53 PM 12.9 °F - -2.9 °F 49% 30.11 in 10.0 mi Calm Calm - N/A   Clear
10:53 PM 7.0 °F - -4.0 °F 61% 30.12 in 10.0 mi Calm Calm - N/A   Clear
11:53 PM 3.9 °F - -6.0 °F 64% 30.13 in 10.0 mi Calm Calm - N/A   Clear